| time (UTC) | temp F | wind direction | speed knots | gust knots | rain 1hr in | rain 24hr in | rain mn in | humidity % | barometer mb |
| 20260505064508 | 52 | 215 | 0.0 | 0.0 | 0.00 | 0.00 | 0.00 | 67 | 1014.2 |
| 20260505063011 | 53 | 214 | 0.0 | 0.0 | 0.00 | 0.00 | 0.00 | 67 | 1014.1 |
| 20260505061511 | 53 | 214 | 0.0 | 0.0 | 0.00 | 0.00 | 0.00 | 66 | 1014.0 |
| 20260505060008 | 53 | 214 | 0.0 | 0.0 | 0.00 | 0.00 | 0.00 | 66 | 1014.1 |
| 20260505054512 | 54 | 176 | 0.0 | 3.5 | 0.00 | 0.00 | 0.00 | 66 | 1014.0 |
| 20260505053012 | 54 | 248 | 0.0 | 2.6 | 0.00 | 0.00 | 0.00 | 65 | 1013.9 |
| 20260505051530 | 55 | 162 | 0.0 | 2.6 | 0.00 | 0.00 | 0.00 | 65 | 1013.8 |
| 20260505041514 | 56 | 166 | 0.0 | 0.9 | 0.00 | 0.00 | 0.00 | 62 | 1012.8 |
| 20260505040016 | 57 | 309 | 0.0 | 2.6 | 0.00 | 0.00 | 0.00 | 62 | 1012.5 |
| 20260505034516 | 57 | 236 | 0.0 | 4.3 | 0.00 | 0.00 | 0.00 | 61 | 1012.3 |
| 20260505033016 | 58 | 346 | 0.9 | 7.0 | 0.00 | 0.00 | 0.00 | 60 | 1012.2 |
| 20260505031518 | 59 | 302 | 0.0 | 4.3 | 0.00 | 0.00 | 0.00 | 58 | 1012.0 |
| 20260505030020 | 61 | 355 | 0.0 | 4.3 | 0.00 | 0.00 | 0.00 | 57 | 1011.8 |
| 20260505024521 | 63 | 4 | 0.0 | 4.3 | 0.00 | 0.00 | 0.00 | 54 | 1011.6 |
| 20260505023015 | 64 | 311 | 0.9 | 6.1 | 0.00 | 0.00 | 0.00 | 54 | 1011.4 |
| 20260505021518 | 66 | 311 | 0.9 | 3.5 | 0.00 | 0.00 | 0.00 | 52 | 1011.4 |
| 20260505020008 | 67 | 301 | 0.0 | 3.5 | 0.00 | 0.00 | 0.00 | 52 | 1011.3 |
| 20260505014507 | 68 | 295 | 0.0 | 6.1 | 0.00 | 0.00 | 0.00 | 51 | 1011.4 |
| 20260505013006 | 69 | 219 | 0.0 | 5.2 | 0.00 | 0.00 | 0.00 | 49 | 1011.4 |
| 20260505011504 | 71 | 359 | 0.0 | 5.2 | 0.00 | 0.00 | 0.00 | 47 | 1011.4 |
| 20260505010003 | 73 | 297 | 0.0 | 7.0 | 0.00 | 0.00 | 0.00 | 47 | 1011.5 |
| 20260505004507 | 76 | 134 | 0.9 | 4.3 | 0.00 | 0.00 | 0.00 | 42 | 1011.4 |
| 20260505003010 | 78 | 136 | 0.0 | 0.9 | 0.00 | 0.00 | 0.00 | 41 | 1011.4 |
| 20260505001512 | 77 | 240 | 0.0 | 0.9 | 0.00 | 0.00 | 0.00 | 42 | 1011.4 |
| 20260505000011 | 78 | 195 | 0.0 | 0.9 | 0.00 | 0.00 | 0.00 | 40 | 1011.6 |
| 20260504234509 | 78 | 290 | 0.0 | 0.9 | 0.00 | 0.00 | 0.00 | 39 | 1011.6 |
| 20260504233006 | 78 | 132 | 0.0 | 0.9 | 0.00 | 0.00 | 0.00 | 40 | 1011.7 |
| 20260504231503 | 77 | 143 | 0.0 | 0.9 | 0.00 | 0.00 | 0.00 | 41 | 1011.8 |
| 20260504230004 | 77 | 136 | 0.0 | 0.9 | 0.00 | 0.00 | 0.00 | 40 | 1012.0 |
| 20260504224522 | 76 | 207 | 0.0 | 2.6 | 0.00 | 0.00 | 0.00 | 42 | 1012.1 |
| 20260504223018 | 76 | 134 | 0.0 | 0.9 | 0.00 | 0.00 | 0.00 | 41 | 1012.2 |
| 20260504221516 | 76 | 246 | 0.0 | 1.7 | 0.00 | 0.00 | 0.00 | 43 | 1012.4 |
| 20260504220011 | 74 | 111 | 0.0 | 2.6 | 0.00 | 0.00 | 0.00 | 45 | 1012.4 |
| 20260504214508 | 74 | 124 | 0.0 | 3.5 | 0.00 | 0.00 | 0.00 | 45 | 1012.6 |
| 20260504213004 | 73 | 138 | 0.0 | 2.6 | 0.00 | 0.00 | 0.00 | 43 | 1012.8 |
| 20260504211503 | 73 | 120 | 0.0 | 0.9 | 0.00 | 0.00 | 0.00 | 45 | 1013.0 |
| 20260504210032 | 72 | 217 | 0.0 | 3.5 | 0.00 | 0.00 | 0.00 | 47 | 1013.1 |
| 20260504204523 | 72 | 221 | 0.0 | 0.9 | 0.00 | 0.00 | 0.00 | 45 | 1013.5 |
| 20260504203024 | 71 | 148 | 0.0 | 0.9 | 0.00 | 0.00 | 0.00 | 46 | 1013.8 |
| 20260504201516 | 69 | 122 | 0.0 | 1.7 | 0.00 | 0.00 | 0.00 | 49 | 1013.8 |
| 20260504200012 | 68 | 295 | 0.9 | 4.3 | 0.00 | 0.00 | 0.00 | 49 | 1013.9 |
| 20260504194511 | 69 | 141 | 0.0 | 1.7 | 0.00 | 0.00 | 0.00 | 50 | 1014.1 |
| 20260504193014 | 67 | 118 | 0.0 | 2.6 | 0.00 | 0.00 | 0.00 | 50 | 1014.0 |
| 20260504191528 | 66 | 122 | 0.0 | 0.9 | 0.00 | 0.00 | 0.00 | 52 | 1014.1 |
| 20260504190026 | 65 | 110 | 0.0 | 2.6 | 0.00 | 0.00 | 0.00 | 53 | 1014.3 |
| 20260504184524 | 65 | 153 | 0.0 | 0.9 | 0.00 | 0.00 | 0.00 | 54 | 1014.5 |
| 20260504183025 | 63 | 143 | 0.0 | 2.6 | 0.00 | 0.00 | 0.00 | 55 | 1014.4 |
| 20260504181517 | 63 | 124 | 0.0 | 1.7 | 0.00 | 0.00 | 0.00 | 55 | 1014.4 |
| 20260504180016 | 62 | 107 | 0.0 | 0.9 | 0.00 | 0.00 | 0.00 | 57 | 1014.3 |
| 20260504174512 | 61 | 214 | 0.0 | 0.9 | 0.00 | 0.00 | 0.00 | 58 | 1014.4 |
| 20260504173028 | 61 | 200 | 0.0 | 0.9 | 0.00 | 0.00 | 0.00 | 57 | 1014.3 |
| 20260504171526 | 60 | 121 | 0.0 | 0.9 | 0.00 | 0.00 | 0.00 | 58 | 1014.4 |
| 20260504081505 | 59 | 259 | 0.0 | 1.7 | 0.00 | 0.00 | 0.00 | 60 | 1009.9 |